Terminal Aerodrome Forecast
Issued by NWS

Home | Current Version | Previous Version | Text Only | Print | Product List | Glossary On
Versions: 1 2 3 4 5 6 7 8 9 10 11 12 13 14 15
000
FTUS45 KVEF 190500
TAFHND
TAF
KHND 190522Z 1906/2006 22011KT P6SM SKC
     FM191400 VRB06KT P6SM SKC
     FM191800 16006KT P6SM SKC
     FM192100 20010KT P6SM SKC=

USA.gov is the U.S. government's official web portal to all federal, state and local government web resources and services.